Vorticity
7 7 7 7 7 7 7 7 8 8 9 9 9 9 9 10 10 10 10 10 10 11 10 9 10 9 10 10 10 11 10 11 11 11 13 12 12 13 14 14 13 14 13 13 13 13 12 11 11 11 10 10 12 10 10 10 8 8 8 9 12 11 14 13 -1 8 16 1 9 10 -1 10 6 1 14 26 19 1 2 5 3 12 16 11 6 8 9 3
7 7 7 7 7 7 7 7 7 8 8 9 9 9 10 10 10 10 11 11 11 11 10 10 10 9 10 10 10 10 10 11 9 11 14 11 10 12 13 13 13 13 12 12 12 11 12 12 9 9 9 9 9 8 9 8 8 8 10 10 10 16 12 6 -3 -0 13 5 -0 -1 0 10 7 1 8 17 14 7 7 2 1 9 10 10 5 -1 4 7
7 7 7 7 7 6 7 7 8 8 8 9 9 9 10 10 10 10 11 11 12 12 11 11 9 9 9 9 10 9 10 9 8 14 14 10 12 13 12 13 13 13 12 12 13 12 13 12 9 10 9 9 8 9 9 6 8 5 8 10 9 20 10 -6 -6 -1 9 10 2 -2 4 17 22 15 7 10 13 7 8 10 9 6 7 10 3 -0 3 1
7 7 6 6 6 6 7 7 8 8 8 9 8 9 9 10 10 10 11 11 12 12 11 12 9 9 8 8 9 8 10 6 9 17 11 9 13 12 12 12 13 13 13 12 12 11 12 10 10 11 8 10 9 8 8 5 9 6 5 9 15 24 7 -9 4 13 8 -1 -5 -7 -0 18 23 12 6 8 8 8 10 10 11 11 11 7 4 8 5 0
7 6 7 6 6 6 6 7 7 8 8 8 8 9 9 9 10 9 10 10 12 13 12 12 10 10 8 8 8 7 8 4 11 19 11 11 13 10 11 11 12 13 12 12 12 11 11 10 10 9 8 9 8 7 8 7 9 10 9 10 16 14 -11 -16 7 16 9 -2 -2 -3 -6 6 10 5 11 12 8 8 6 7 11 11 10 8 12 9 3 9
7 6 7 6 7 6 6 7 7 8 8 8 8 8 9 9 10 10 10 10 11 12 13 13 11 10 8 8 7 6 7 4 9 15 10 13 15 12 10 9 11 12 12 11 11 10 8 9 8 9 9 7 7 7 7 7 9 10 10 10 15 11 -14 -16 3 6 6 9 14 14 4 2 5 8 16 13 16 15 3 11 12 6 10 8 8 5 7 16
7 6 7 6 7 6 6 7 7 8 7 8 8 8 9 9 10 10 9 10 10 11 12 13 13 11 8 8 6 5 6 5 8 9 4 7 11 13 12 10 10 10 10 11 9 9 8 9 8 8 9 7 6 6 6 5 7 7 9 10 11 11 -3 -7 -1 -6 0 12 17 19 13 11 11 13 17 10 19 23 2 4 9 6 13 11 8 12 21 16
7 7 7 6 7 7 7 7 7 7 7 8 8 8 9 9 10 10 10 10 10 11 11 12 14 13 10 7 6 5 4 5 8 5 1 3 5 9 11 11 11 9 9 9 8 8 8 8 7 8 7 7 6 5 5 5 6 6 7 10 8 8 5 1 3 -3 -1 9 11 13 11 9 10 9 12 4 8 21 8 0 6 6 7 7 5 9 17 0
7 7 7 7 7 7 7 7 7 7 7 7 8 8 9 9 10 9 10 10 10 11 10 11 13 14 13 9 6 5 3 6 8 4 3 5 2 3 8 11 12 10 9 8 8 8 8 8 7 8 6 6 6 5 5 4 6 6 5 7 8 9 4 -2 6 6 2 7 7 10 10 5 4 4 5 -2 -6 9 12 4 2 5 8 8 3 3 10 -8
8 7 7 7 7 7 7 7 7 7 7 7 7 8 8 9 9 9 9 9 10 10 11 12 11 13 15 12 8 5 5 7 8 5 5 5 4 2 2 5 10 12 11 9 9 8 7 8 7 7 8 7 6 5 5 4 5 5 5 6 7 8 3 -3 3 7 5 8 6 7 11 7 5 4 4 2 2 12 14 6 1 0 1 6 8 8 8 -1
9 8 7 7 7 7 7 7 7 6 7 6 7 8 8 8 7 8 8 8 9 9 11 12 12 12 14 15 12 6 6 7 7 8 5 5 6 3 2 3 3 8 12 10 9 9 8 8 8 9 8 7 6 5 5 6 5 4 4 9 9 4 5 3 3 9 7 4 6 7 8 8 5 4 5 4 5 9 7 8 13 3 -4 1 5 5 4 2
9 8 8 8 7 7 7 7 7 6 6 6 7 7 7 7 6 7 7 8 9 9 11 12 13 13 12 16 15 8 7 7 7 7 5 6 6 3 6 7 3 3 6 9 10 9 8 8 9 8 7 8 7 5 6 6 6 6 4 7 8 5 6 5 4 9 7 4 5 5 7 7 6 8 11 12 9 11 6 0 10 10 1 3 3 1 4 5
9 9 8 8 7 7 7 7 7 6 6 6 6 7 7 6 6 6 6 7 8 10 12 13 14 13 14 16 14 11 8 8 9 8 6 5 7 6 5 7 9 5 2 4 9 8 7 8 9 7 7 9 7 6 8 7 5 6 7 5 6 9 7 5 6 8 7 7 5 4 9 7 7 9 10 16 11 17 28 9 4 15 5 -1 4 4 5 8
9 9 8 8 8 8 7 7 7 6 6 6 6 6 6 6 6 5 5 6 8 10 12 14 15 14 17 15 12 14 10 6 10 11 10 7 8 10 6 7 10 10 6 1 3 7 7 7 8 5 7 8 6 8 8 7 7 6 8 8 8 11 8 7 6 8 8 7 5 6 8 7 9 8 7 16 0 -8 20 18 2 11 9 2 5 4 4 6
9 9 9 9 8 8 7 7 7 6 6 6 6 6 6 6 5 5 5 5 6 9 11 15 16 16 19 14 12 16 11 6 7 10 11 10 10 11 9 8 8 12 12 6 3 3 4 6 7 6 8 8 5 8 9 8 8 7 9 9 9 9 8 10 7 9 9 5 7 4 6 9 7 9 8 12 7 -9 -1 11 7 7 8 6 5 5 4 2
9 9 9 9 9 8 8 7 7 7 6 6 6 6 6 6 5 5 5 5 5 8 11 14 16 17 19 16 13 14 12 7 6 9 10 9 10 10 10 9 9 11 11 11 9 3 1 2 4 6 8 8 6 8 7 7 8 10 11 9 11 11 8 10 10 14 12 7 9 4 7 8 6 25 18 -4 5 11 7 8 9 9 7 2 3 4 2 4
9 9 9 8 8 8 8 8 7 7 6 6 6 6 6 5 5 6 5 6 5 6 9 12 16 18 17 17 14 12 12 8 5 9 10 8 9 10 11 10 9 10 11 12 12 10 6 3 4 6 6 7 7 7 7 8 8 9 12 10 10 11 11 13 15 14 10 14 21 14 9 7 11 20 8 -3 1 4 16 14 5 12 8 -2 2 1 0 9
10 10 9 9 8 8 7 7 7 7 6 6 6 6 7 6 6 6 5 6 5 5 7 10 16 18 15 17 16 12 14 10 5 8 9 8 8 10 12 12 10 10 11 10 11 12 11 8 7 6 7 7 6 7 8 7 7 9 16 18 15 13 11 14 20 13 4 9 15 17 15 13 18 -1 -1 38 24 -3 21 20 6 20 13 -3 3 4 4 9
11 11 10 9 9 8 7 7 7 7 6 6 6 6 6 6 6 6 6 7 6 5 5 9 15 16 14 15 14 12 13 9 5 8 9 8 8 11 12 12 11 10 10 10 10 11 11 11 10 8 9 8 8 10 7 7 14 17 17 21 22 19 15 15 18 7 3 1 -13 5 24 22 16 -21 -11 44 18 -8 26 23 5 10 9 4 1 1 6 6
12 13 11 10 9 9 8 8 7 7 6 6 6 6 6 6 5 6 8 7 6 6 4 7 13 14 14 13 12 13 14 9 5 8 9 8 9 11 12 12 12 10 10 9 8 10 12 11 10 11 10 9 10 11 10 13 17 9 4 12 14 15 21 22 16 -1 4 10 -9 8 30 20 14 -15 -16 23 7 -18 -10 -4 3 0 2 10 3 0 7 8
12 13 13 13 11 10 9 9 8 7 7 7 6 6 6 5 5 5 7 7 6 7 6 6 9 13 14 12 10 12 13 8 7 9 7 8 10 10 11 11 12 11 10 9 9 10 12 12 13 12 11 12 11 9 12 12 10 -1 -9 -0 8 15 20 16 17 4 -2 12 6 17 34 14 5 2 -6 5 12 12 -3 -15 -6 0 4 7 4 5 3 5
13 13 13 15 14 13 11 10 9 8 8 7 7 7 6 5 5 4 6 7 7 6 7 6 6 9 12 13 12 11 12 7 8 10 7 7 9 10 11 10 11 11 10 11 10 10 12 13 14 13 12 12 10 12 16 10 8 8 -3 -5 6 19 18 6 20 20 -2 8 9 6 30 26 4 2 3 -7 -5 22 29 6 -8 -3 7 6 5 5 1 5
14 14 14 15 15 15 15 14 12 9 9 8 7 8 7 6 4 4 5 7 8 7 9 9 6 7 8 11 13 11 11 8 8 10 6 7 8 9 9 9 12 11 10 12 11 11 12 11 12 14 12 12 11 10 14 14 10 15 11 -6 -12 5 19 7 10 17 -4 -0 10 -7 4 30 23 5 5 5 -5 -1 9 12 15 9 1 5 5 -2 -1 6
14 15 15 15 15 14 16 17 15 13 12 11 11 11 10 8 5 4 4 6 8 6 8 10 7 7 6 9 13 10 10 9 9 10 6 6 8 10 9 8 10 11 10 10 11 12 11 13 12 10 9 11 13 3 4 18 14 18 23 3 -11 0 18 10 2 14 9 1 -1 -19 -27 -3 19 13 8 13 4 2 10 12 19 16 4 5 5 -2 3 8
12 12 13 14 14 14 15 17 17 16 15 14 13 13 12 11 7 6 4 5 7 4 6 11 12 10 6 7 11 9 9 10 9 11 8 6 8 10 11 10 8 10 13 9 9 10 11 15 10 15 24 17 19 17 10 15 13 16 18 13 18 10 -0 8 11 12 18 19 8 4 8 -1 -0 8 11 18 6 -5 1 -4 -6 5 9 6 4 5 7 5
8 8 9 10 11 12 12 13 15 15 16 15 16 15 13 12 9 8 6 5 7 5 6 8 12 16 13 9 9 7 8 10 10 11 8 6 9 9 9 12 9 9 12 11 10 9 10 12 3 12 21 6 12 26 17 12 11 13 11 14 25 10 -7 2 11 2 0 13 7 13 45 32 3 -3 -6 9 11 -13 -13 -5 -2 6 9 7 6 5 6 8
8 6 7 7 7 8 8 8 9 11 11 11 15 16 13 11 11 9 8 7 6 6 7 4 3 9 13 13 11 9 9 8 8 10 8 7 11 11 8 11 12 11 10 8 9 10 12 11 -1 -4 -5 -3 14 20 15 15 13 16 17 19 18 15 18 3 -4 10 12 23 12 -9 20 29 8 8 9 21 23 7 10 14 10 9 7 7 5 -0 6 17
9 8 7 6 6 6 6 6 6 7 6 4 8 10 7 9 10 9 9 8 9 11 10 8 7 4 6 13 14 11 11 10 8 8 9 10 11 11 11 11 12 12 9 4 4 9 12 6 -1 -2 -6 7 22 12 12 17 15 20 10 8 18 25 26 -8 -20 11 13 23 29 -2 2 16 8 8 9 12 9 6 18 17 10 11 7 7 6 2 7 13
10 10 10 9 7 7 7 6 6 7 6 4 5 5 4 6 6 6 8 7 9 13 9 8 12 7 2 8 12 10 9 10 12 11 10 10 11 11 11 12 12 10 8 9 6 5 12 11 5 5 -0 7 17 10 13 12 13 25 8 -3 18 31 25 -15 -27 9 10 7 21 14 9 14 21 18 -3 -6 -1 -2 6 11 13 14 8 6 7 11 13 11
12 12 12 11 10 10 10 9 10 10 8 7 7 7 6 5 4 4 6 7 8 12 9 8 11 10 9 11 11 11 8 6 8 12 11 9 11 13 11 10 11 9 5 9 11 5 7 14 10 10 6 6 11 8 13 14 11 20 16 3 3 17 34 7 -24 -4 13 6 3 7 9 7 19 21 5 6 9 2 4 9 15 18 14 9 8 14 21 22
16 15 15 15 14 14 14 13 15 15 13 12 11 10 9 8 7 5 5 9 11 9 6 2 0 2 7 11 11 11 10 8 5 6 9 9 10 12 12 12 9 9 6 4 11 10 1 2 6 16 20 11 5 3 6 16 20 15 8 2 -8 -0 30 30 3 -4 4 6 4 6 8 6 11 10 6 13 15 14 15 12 13 15 14 16 16 16 20 26
15 14 14 14 13 14 13 13 14 14 15 15 14 13 13 11 10 8 6 8 9 12 15 16 14 11 10 11 12 12 11 10 8 7 8 8 10 10 9 13 12 10 11 7 10 13 4 -1 -1 7 19 14 5 2 -4 2 23 22 8 5 1 2 18 19 9 9 10 6 9 12 8 7 14 12 4 4 5 10 14 11 8 6 11 18 18 15 15 17
12 12 12 12 12 12 12 11 12 12 13 13 13 13 13 12 12 11 11 9 7 7 8 13 18 15 11 12 11 12 14 12 8 9 10 7 8 10 7 10 13 12 13 12 12 12 9 7 5 3 9 12 10 9 0 2 19 20 15 14 1 -1 19 16 3 12 20 15 13 12 7 5 11 11 6 1 -4 -4 6 19 20 11 11 13 10 12 13 9
13 13 12 12 11 11 12 12 12 12 11 12 12 12 11 12 12 14 16 16 14 7 -2 1 8 6 6 14 13 10 13 15 11 7 9 9 7 8 9 7 9 10 7 5 7 10 9 8 9 10 8 7 13 12 3 6 17 14 13 16 1 -5 13 13 4 9 12 13 15 13 16 16 8 7 13 13 7 -2 -3 11 22 14 7 13 17 16 12 9
12 13 12 12 12 11 12 12 12 13 12 12 12 10 12 11 12 16 18 17 17 11 3 4 13 12 8 12 14 11 11 14 14 10 9 11 8 6 10 11 9 10 7 4 4 5 9 10 9 13 13 11 15 15 4 -1 9 14 12 11 4 3 11 7 5 10 10 13 13 6 13 15 3 1 8 12 13 7 -5 -3 8 10 3 9 18 14 9 10
11 12 11 11 11 10 11 10 11 12 11 12 13 12 14 13 12 14 16 19 18 14 13 11 13 18 13 6 6 7 12 11 6 9 11 11 12 8 8 10 10 10 9 8 8 5 5 13 17 17 15 13 11 11 9 1 2 9 11 11 7 6 11 6 2 8 9 8 10 10 13 13 7 5 5 7 11 9 5 1 -1 2 4 5 10 13 13 11
10 10 8 9 9 8 8 8 8 9 9 10 11 11 13 13 14 13 14 18 7 0 18 19 3 7 13 12 10 5 7 10 4 7 12 8 9 11 10 11 11 12 13 9 9 11 9 8 10 11 13 16 14 8 10 11 8 8 11 14 12 10 10 1 -3 14 17 6 3 5 7 12 16 16 13 13 12 9 10 12 5 3 8 8 6 8 6 5
9 9 9 10 10 10 10 9 10 10 10 9 8 9 11 11 14 13 14 18 -2 -15 16 32 4 -7 8 19 24 17 7 8 10 10 12 7 5 8 10 12 13 14 15 9 1 6 13 8 2 5 10 14 16 9 5 9 7 0 8 19 10 2 9 6 -2 5 15 16 14 3 -3 2 7 11 14 14 11 7 6 8 8 7 13 13 7 6 6 6
11 11 11 11 12 13 13 13 14 13 13 14 11 11 11 10 13 13 11 17 4 -18 5 37 10 -18 -2 11 15 23 17 10 11 8 12 14 8 8 9 6 8 11 16 18 8 -0 3 5 5 17 22 12 12 12 3 4 5 -6 1 17 12 -0 1 7 8 5 5 13 22 16 5 2 3 5 10 10 9 9 8 10 12 11 14 13 8 7 2 0
12 11 12 13 13 14 13 12 14 14 14 15 14 15 15 13 13 14 13 18 14 -9 -5 27 10 -21 -4 3 -1 20 23 13 12 3 4 11 4 9 18 8 1 1 6 18 19 10 4 -1 -3 6 11 5 6 15 11 4 5 8 11 8 6 9 8 2 5 9 4 1 9 16 9 3 5 4 3 6 5 7 11 17 22 21 18 14 15 21 16 12
12 11 13 13 10 11 12 12 13 14 16 17 18 18 16 14 12 13 15 16 18 4 -6 13 12 -8 -3 -5 -2 22 17 7 20 9 -3 6 7 11 17 13 6 -1 0 11 16 18 17 7 -4 -10 -3 5 4 11 25 20 4 7 19 12 -1 4 8 6 8 11 11 3 -3 6 9 6 7 4 2 7 7 8 8 5 5 9 11 9 10 16 18 17
11 11 11 9 9 13 14 14 15 17 20 20 19 18 16 19 22 18 11 3 6 8 1 7 12 4 -1 -14 -15 9 4 -1 24 24 7 7 16 20 11 5 6 2 6 15 9 13 20 17 9 -6 -10 -0 -9 -16 9 26 15 4 9 13 12 8 0 -3 -1 2 12 14 0 -4 1 8 15 14 8 3 2 6 8 4 2 0 5 11 6 -1 -4 -6
11 10 10 11 11 13 13 14 15 16 18 16 14 16 13 10 15 21 19 8 7 13 10 12 11 9 19 10 -8 1 4 -1 12 26 20 5 4 19 19 13 14 8 12 16 3 4 12 13 22 19 7 7 -2 -12 -4 5 11 12 6 3 9 17 16 11 3 -4 0 12 14 9 2 1 8 14 11 6 4 4 1 1 7 9 9 13 10 4 0 -3
11 9 15 15 7 8 15 17 17 14 13 12 10 12 11 4 7 20 25 19 16 14 9 13 11 6 23 30 9 -1 3 3 5 17 26 16 5 10 8 4 6 5 8 7 -2 6 9 -0 5 15 18 22 19 17 12 -3 -4 6 5 1 -2 0 10 17 16 10 2 2 10 11 6 4 9 11 9 7 9 13 11 6 9 16 17 14 9 7 7 7
9 9 15 10 5 18 28 26 26 23 17 15 14 11 9 8 13 19 18 16 20 18 8 12 14 3 11 25 12 -8 -8 -4 -5 3 20 25 23 27 19 5 4 10 15 4 -12 -1 16 13 3 -4 -0 10 11 11 8 -3 0 9 6 4 2 -1 0 2 3 8 7 2 2 -0 -5 -0 11 14 9 3 1 5 10 10 11 18 21 17 12 10 8 8
8 10 9 9 21 35 32 24 27 34 34 31 27 21 8 2 10 17 16 15 24 25 11 7 13 4 3 21 17 -1 -4 -6 -18 -14 2 4 5 21 28 20 11 13 26 25 4 -6 6 14 11 3 3 6 4 7 13 8 6 10 12 11 5 2 5 2 -2 1 7 6 3 2 -0 -1 3 8 8 7 5 3 2 3 9 17 20 17 13 11 10 9
9 10 4 18 37 28 13 15 19 25 36 40 40 35 18 7 9 12 9 8 18 28 16 4 10 9 7 23 30 15 8 5 -8 -14 -5 -1 -0 5 10 14 11 2 12 31 28 9 1 3 5 5 9 9 -1 -3 7 12 5 3 11 12 3 -1 7 11 9 10 16 16 8 3 6 8 6 6 9 12 11 8 7 6 5 6 7 10 12 9 8 9
9 9 5 27 42 14 -4 8 9 9 21 29 37 39 26 18 19 14 9 7 13 26 25 12 9 10 5 12 27 26 14 9 4 -6 -8 -1 2 -2 -2 11 22 15 8 15 24 19 9 7 6 3 4 7 2 -5 -4 2 7 11 16 14 4 -0 4 8 8 7 10 15 13 5 3 7 5 1 3 11 15 12 10 10 11 12 9 7 8 9 7 8
10 8 6 30 43 13 -8 -0 5 13 23 19 19 26 22 20 23 20 15 14 14 19 25 22 15 14 11 4 12 24 21 12 9 4 -3 -3 2 3 -4 -7 5 20 17 7 10 18 18 15 15 15 16 15 10 7 3 -0 1 2 2 2 3 6 6 5 9 16 12 6 5 7 8 8 7 5 3 5 11 13 10 6 9 17 20 11 4 5 9 9
9 8 5 25 40 23 7 10 14 20 24 18 14 19 19 13 13 17 18 20 19 13 15 18 13 14 17 9 7 16 20 18 19 15 3 -5 -1 8 4 -9 -10 11 28 22 8 7 12 14 12 10 15 20 20 22 21 17 14 8 0 -2 1 8 8 -3 -6 9 19 13 3 1 6 7 4 5 6 2 1 6 12 13 12 13 16 14 10 7 7 7
9 9 6 17 31 29 18 14 11 10 14 20 19 18 19 14 9 12 18 21 18 14 16 14 8 12 14 9 12 15 13 19 25 19 12 6 -1 -0 12 13 -8 -19 4 23 16 8 10 12 11 8 7 9 11 18 23 23 24 23 20 18 14 13 10 -1 -10 -5 9 18 16 5 1 7 9 7 6 3 -1 -1 3 12 20 17 11 9 10 11 9 8
8 9 8 10 20 30 26 12 2 2 10 21 22 16 16 20 21 19 20 24 22 23 26 14 3 12 13 10 21 19 8 17 25 17 14 16 8 -2 4 15 3 -17 -10 6 9 13 20 19 15 12 13 12 10 11 15 18 21 24 26 26 23 21 18 14 10 5 1 7 19 18 6 -1 4 9 10 10 9 3 -3 -1 9 16 14 11 10 11 13 14
Height
5759 5759 5759 5759 5759 5758 5758 5758 5757 5757 5757 5756 5756 5756 5755 5755 5754 5754 5753 5753 5753 5752 5752 5752 5752 5752 5752 5752 5752 5752 5752 5752 5753 5753 5754 5754 5755 5756 5757 5759 5760 5761 5763 5765 5766 5768 5769 5770 5771 5772 5774 5775 5776 5778 5779 5780 5781 5782 5784 5786 5789 5791 5794 5796 5801 5804 5806 5807 5800 5795 5793 5794 5801 5800 5799 5803 5804 5805 5806 5806 5804 5804 5805 5807 5809 5810 5810 5812
5756 5756 5756 5755 5755 5755 5755 5754 5754 5754 5753 5753 5753 5752 5752 5751 5751 5750 5750 5750 5749 5749 5749 5749 5749 5749 5749 5749 5749 5749 5749 5750 5750 5751 5752 5752 5753 5754 5755 5756 5758 5759 5761 5762 5763 5764 5766 5767 5768 5769 5771 5772 5774 5775 5776 5778 5779 5780 5781 5784 5787 5788 5792 5795 5800 5804 5802 5801 5795 5790 5789 5794 5801 5799 5798 5802 5802 5803 5804 5803 5801 5802 5803 5805 5807 5807 5808 5809
5752 5752 5752 5752 5752 5752 5751 5751 5751 5751 5750 5750 5749 5749 5749 5748 5748 5747 5747 5746 5746 5746 5746 5746 5746 5746 5746 5746 5746 5746 5747 5747 5748 5749 5750 5750 5751 5752 5753 5754 5755 5757 5758 5759 5761 5762 5763 5764 5766 5767 5768 5770 5771 5772 5773 5775 5776 5777 5779 5781 5784 5787 5790 5792 5797 5799 5795 5792 5791 5789 5789 5794 5798 5797 5797 5800 5800 5801 5801 5799 5799 5800 5802 5804 5805 5805 5805 5806
5749 5749 5749 5749 5749 5748 5748 5748 5748 5748 5747 5747 5746 5746 5745 5745 5744 5744 5744 5743 5743 5743 5742 5743 5743 5743 5743 5743 5744 5744 5744 5744 5746 5748 5748 5748 5749 5750 5751 5752 5753 5754 5756 5757 5758 5759 5761 5762 5763 5765 5766 5767 5769 5770 5771 5772 5774 5776 5778 5780 5783 5786 5787 5791 5792 5790 5788 5787 5788 5788 5791 5794 5794 5794 5795 5797 5798 5798 5798 5796 5796 5798 5800 5802 5802 5802 5803 5803
5746 5746 5746 5745 5745 5745 5745 5745 5745 5744 5744 5744 5743 5742 5742 5742 5741 5741 5740 5740 5740 5740 5739 5740 5740 5740 5740 5741 5741 5741 5742 5742 5744 5746 5746 5746 5747 5748 5749 5750 5751 5752 5754 5755 5756 5757 5759 5760 5761 5762 5764 5765 5766 5768 5769 5770 5772 5774 5776 5778 5781 5782 5784 5789 5788 5784 5783 5784 5785 5787 5792 5792 5789 5791 5794 5795 5796 5795 5795 5795 5794 5796 5797 5798 5800 5801 5801 5801
5742 5742 5742 5742 5742 5742 5742 5742 5742 5741 5741 5740 5740 5739 5739 5739 5738 5738 5737 5737 5737 5737 5737 5737 5737 5737 5737 5738 5739 5739 5739 5739 5742 5744 5744 5744 5745 5746 5747 5748 5749 5750 5752 5753 5754 5755 5757 5758 5759 5760 5762 5763 5764 5765 5767 5769 5770 5771 5773 5776 5778 5779 5779 5781 5782 5779 5778 5781 5784 5787 5790 5789 5787 5791 5792 5793 5793 5791 5793 5793 5791 5793 5794 5796 5798 5799 5799 5800
5739 5739 5739 5739 5739 5739 5739 5739 5738 5738 5738 5737 5737 5736 5736 5735 5735 5735 5734 5734 5734 5734 5734 5734 5734 5734 5735 5735 5736 5737 5737 5736 5739 5742 5742 5742 5744 5745 5746 5746 5747 5748 5750 5751 5752 5754 5755 5756 5757 5758 5760 5761 5762 5764 5765 5767 5767 5769 5771 5774 5776 5776 5775 5776 5778 5775 5774 5780 5784 5785 5787 5786 5788 5791 5790 5791 5790 5788 5790 5791 5791 5793 5793 5794 5795 5797 5798 5800
5736 5736 5736 5736 5736 5736 5736 5736 5735 5735 5735 5734 5734 5733 5733 5733 5732 5732 5731 5731 5731 5731 5731 5731 5731 5731 5732 5732 5733 5734 5734 5734 5738 5740 5740 5741 5742 5743 5744 5744 5746 5747 5748 5749 5750 5751 5752 5754 5755 5756 5758 5759 5760 5762 5763 5764 5765 5766 5769 5772 5772 5774 5774 5775 5776 5773 5773 5780 5781 5782 5784 5784 5788 5788 5786 5789 5788 5786 5788 5790 5791 5792 5792 5793 5794 5795 5797 5799
5732 5732 5732 5732 5733 5733 5733 5732 5732 5732 5732 5732 5731 5731 5730 5730 5729 5729 5729 5728 5728 5728 5728 5728 5728 5728 5729 5730 5731 5731 5730 5733 5736 5737 5738 5740 5740 5741 5742 5743 5744 5745 5746 5747 5748 5749 5750 5752 5753 5754 5755 5756 5758 5759 5760 5762 5762 5764 5767 5769 5770 5771 5772 5771 5772 5771 5773 5777 5778 5779 5782 5783 5786 5785 5783 5787 5786 5785 5786 5787 5788 5790 5790 5791 5792 5793 5795 5797
5729 5729 5729 5729 5729 5729 5729 5729 5729 5729 5729 5729 5728 5728 5727 5727 5726 5726 5726 5725 5725 5725 5725 5725 5725 5725 5726 5727 5728 5728 5728 5731 5734 5735 5736 5737 5738 5739 5740 5741 5742 5743 5743 5745 5746 5747 5748 5750 5751 5752 5753 5754 5755 5756 5757 5759 5760 5763 5765 5766 5767 5768 5768 5768 5769 5770 5772 5774 5775 5777 5780 5781 5782 5782 5782 5786 5785 5785 5785 5784 5785 5787 5788 5789 5789 5791 5792 5794
5725 5725 5726 5726 5726 5726 5726 5726 5726 5726 5726 5726 5725 5725 5725 5724 5724 5723 5723 5722 5722 5722 5722 5722 5722 5722 5723 5724 5725 5725 5727 5730 5731 5733 5733 5734 5736 5737 5738 5739 5740 5740 5741 5742 5743 5745 5746 5747 5748 5749 5750 5752 5753 5754 5755 5757 5758 5761 5762 5761 5763 5765 5765 5767 5767 5768 5770 5771 5772 5775 5777 5778 5779 5779 5781 5785 5784 5783 5784 5783 5782 5784 5786 5787 5788 5789 5790 5791
5722 5722 5722 5722 5722 5723 5723 5723 5723 5723 5723 5722 5722 5722 5722 5721 5721 5720 5720 5720 5720 5719 5719 5719 5719 5719 5720 5721 5723 5722 5724 5727 5728 5730 5731 5732 5733 5734 5735 5736 5737 5738 5739 5740 5741 5742 5744 5744 5746 5747 5748 5749 5750 5751 5753 5754 5756 5758 5758 5758 5761 5763 5763 5765 5765 5766 5769 5769 5770 5772 5774 5775 5776 5778 5780 5783 5782 5780 5783 5783 5781 5782 5784 5785 5786 5787 5788 5789
5718 5718 5718 5719 5719 5719 5719 5719 5719 5719 5719 5719 5719 5719 5719 5719 5718 5718 5717 5717 5717 5717 5716 5716 5716 5716 5717 5719 5720 5720 5722 5724 5725 5727 5728 5729 5730 5732 5733 5734 5735 5735 5736 5737 5738 5740 5741 5742 5743 5745 5746 5746 5747 5749 5750 5751 5753 5755 5756 5757 5759 5760 5761 5763 5763 5765 5767 5768 5769 5769 5771 5773 5774 5777 5779 5780 5780 5779 5780 5782 5781 5780 5782 5783 5784 5785 5786 5787
5715 5715 5715 5715 5715 5715 5716 5716 5716 5716 5716 5716 5716 5716 5716 5716 5715 5715 5715 5715 5714 5714 5713 5713 5713 5713 5715 5716 5716 5718 5720 5721 5723 5724 5725 5726 5727 5729 5730 5731 5732 5733 5734 5735 5736 5737 5739 5740 5741 5743 5743 5743 5745 5747 5747 5748 5751 5753 5753 5754 5756 5757 5758 5761 5762 5763 5765 5766 5767 5767 5768 5771 5773 5775 5777 5778 5777 5778 5779 5780 5780 5780 5779 5780 5781 5782 5784 5786
5711 5711 5711 5711 5712 5712 5712 5712 5712 5713 5713 5713 5713 5713 5713 5713 5713 5713 5712 5712 5712 5712 5711 5711 5710 5710 5712 5712 5714 5717 5717 5718 5720 5721 5722 5724 5725 5726 5727 5728 5729 5730 5731 5732 5733 5735 5736 5737 5739 5740 5740 5741 5743 5744 5744 5746 5748 5750 5751 5752 5754 5754 5757 5759 5760 5761 5762 5764 5765 5765 5766 5769 5772 5773 5775 5776 5774 5775 5779 5778 5779 5779 5776 5777 5779 5781 5782 5783
5707 5707 5708 5708 5708 5708 5708 5709 5709 5709 5710 5710 5710 5710 5710 5710 5710 5710 5710 5710 5710 5709 5708 5708 5708 5708 5709 5710 5712 5713 5713 5715 5718 5719 5720 5721 5722 5723 5724 5725 5726 5727 5728 5729 5731 5732 5734 5735 5736 5737 5738 5739 5741 5741 5741 5744 5745 5747 5748 5749 5751 5752 5754 5757 5758 5759 5760 5762 5762 5761 5764 5767 5770 5772 5774 5775 5773 5772 5777 5777 5777 5777 5775 5775 5777 5779 5779 5780
5704 5704 5704 5704 5704 5704 5705 5705 5705 5706 5707 5707 5707 5707 5707 5707 5707 5707 5707 5707 5707 5707 5706 5705 5705 5706 5706 5707 5709 5710 5711 5713 5715 5716 5718 5719 5719 5719 5721 5722 5723 5724 5725 5727 5728 5729 5731 5732 5733 5734 5735 5736 5738 5738 5739 5741 5743 5744 5746 5747 5749 5750 5752 5754 5757 5758 5757 5759 5760 5759 5761 5765 5769 5771 5773 5775 5772 5770 5773 5775 5775 5774 5773 5773 5775 5777 5778 5779
5700 5700 5700 5700 5701 5701 5701 5701 5702 5703 5703 5704 5704 5704 5704 5704 5704 5704 5705 5705 5705 5705 5704 5703 5704 5703 5704 5705 5707 5708 5709 5711 5713 5714 5715 5716 5716 5716 5718 5720 5720 5721 5723 5724 5725 5726 5727 5729 5730 5731 5732 5733 5735 5735 5736 5739 5741 5743 5744 5745 5747 5749 5750 5752 5756 5760 5757 5756 5760 5758 5758 5763 5768 5769 5771 5774 5771 5768 5770 5772 5773 5772 5771 5771 5772 5775 5777 5778
5697 5696 5696 5697 5697 5697 5697 5698 5698 5699 5700 5700 5701 5701 5701 5701 5701 5701 5702 5703 5702 5702 5702 5701 5702 5701 5702 5704 5704 5705 5706 5709 5711 5711 5712 5713 5713 5714 5715 5717 5717 5719 5720 5721 5723 5723 5724 5725 5726 5728 5729 5731 5732 5733 5735 5737 5740 5742 5743 5744 5746 5747 5748 5750 5754 5759 5758 5755 5758 5758 5757 5761 5765 5766 5768 5770 5767 5767 5769 5769 5771 5770 5769 5769 5770 5772 5774 5776
5693 5693 5693 5693 5693 5694 5694 5694 5695 5695 5696 5697 5698 5698 5698 5698 5698 5698 5700 5700 5700 5700 5699 5699 5700 5699 5700 5701 5702 5703 5704 5707 5708 5708 5709 5711 5711 5712 5713 5714 5715 5716 5718 5719 5720 5721 5722 5722 5724 5726 5727 5729 5730 5731 5732 5735 5737 5738 5741 5743 5745 5745 5746 5749 5753 5756 5757 5755 5755 5756 5757 5760 5762 5763 5767 5768 5765 5765 5767 5767 5769 5769 5768 5766 5767 5769 5771 5773
5689 5689 5689 5689 5690 5690 5690 5691 5691 5692 5692 5693 5694 5695 5694 5695 5695 5695 5697 5698 5697 5697 5698 5697 5698 5698 5698 5699 5700 5701 5702 5704 5705 5705 5707 5708 5709 5709 5710 5712 5713 5714 5715 5716 5717 5718 5719 5720 5722 5724 5725 5726 5727 5728 5730 5732 5732 5733 5737 5739 5743 5745 5745 5748 5752 5755 5755 5753 5754 5754 5755 5758 5760 5762 5765 5766 5764 5764 5765 5766 5767 5768 5768 5765 5764 5765 5769 5772
5686 5686 5686 5686 5686 5686 5687 5687 5688 5688 5689 5690 5691 5691 5691 5692 5692 5692 5693 5695 5695 5694 5695 5696 5695 5696 5696 5697 5698 5699 5700 5702 5702 5703 5705 5705 5706 5707 5708 5709 5710 5712 5712 5713 5714 5716 5717 5719 5721 5722 5722 5723 5724 5725 5727 5728 5728 5730 5733 5735 5739 5743 5745 5747 5751 5755 5754 5750 5753 5754 5753 5756 5758 5760 5763 5764 5764 5762 5762 5765 5765 5766 5768 5764 5760 5762 5768 5772
5682 5682 5682 5682 5682 5683 5683 5684 5684 5684 5685 5686 5687 5688 5688 5689 5689 5689 5690 5692 5693 5692 5693 5694 5693 5694 5694 5695 5696 5697 5698 5699 5699 5700 5702 5703 5704 5704 5706 5707 5708 5709 5710 5711 5712 5714 5716 5717 5718 5719 5720 5721 5721 5723 5724 5725 5726 5729 5732 5733 5736 5740 5744 5747 5749 5753 5752 5746 5749 5753 5752 5754 5755 5758 5760 5761 5764 5761 5758 5761 5763 5765 5766 5761 5757 5760 5765 5769
5679 5679 5679 5679 5679 5680 5680 5681 5681 5681 5681 5683 5684 5684 5685 5685 5686 5687 5687 5689 5691 5690 5689 5691 5692 5691 5692 5693 5694 5695 5696 5696 5697 5698 5699 5701 5701 5702 5704 5705 5706 5707 5708 5709 5710 5712 5714 5715 5715 5716 5717 5718 5718 5719 5721 5723 5724 5727 5730 5731 5733 5737 5742 5747 5748 5749 5748 5742 5744 5750 5751 5751 5753 5756 5757 5757 5762 5761 5755 5758 5761 5763 5763 5758 5756 5759 5762 5765
5677 5676 5676 5676 5676 5677 5677 5678 5677 5678 5678 5679 5680 5681 5682 5683 5683 5684 5684 5685 5688 5688 5687 5688 5690 5689 5690 5691 5692 5693 5693 5693 5695 5695 5697 5699 5699 5700 5702 5703 5704 5705 5706 5707 5708 5710 5712 5712 5713 5714 5715 5716 5716 5717 5719 5721 5722 5724 5727 5729 5732 5734 5738 5744 5746 5745 5744 5741 5742 5746 5748 5748 5750 5754 5755 5755 5759 5758 5754 5755 5759 5760 5759 5756 5754 5755 5759 5762
5674 5674 5674 5673 5673 5674 5675 5675 5675 5675 5675 5676 5677 5678 5679 5680 5680 5681 5682 5682 5684 5685 5685 5686 5688 5687 5687 5688 5690 5690 5690 5692 5694 5693 5694 5697 5697 5698 5700 5700 5702 5703 5704 5705 5706 5708 5710 5710 5711 5713 5714 5714 5714 5715 5717 5719 5720 5722 5724 5727 5730 5732 5733 5738 5742 5741 5740 5740 5741 5742 5743 5745 5746 5749 5751 5752 5755 5754 5752 5754 5756 5757 5756 5753 5750 5751 5757 5761
5671 5671 5671 5671 5671 5671 5672 5673 5673 5672 5672 5674 5675 5675 5676 5677 5678 5678 5679 5680 5681 5682 5683 5684 5686 5685 5685 5686 5687 5688 5689 5690 5691 5690 5692 5694 5695 5696 5697 5698 5700 5701 5702 5704 5704 5705 5708 5708 5709 5711 5712 5712 5713 5714 5715 5717 5718 5720 5723 5725 5728 5730 5731 5734 5737 5739 5737 5738 5739 5739 5739 5742 5743 5745 5748 5750 5750 5749 5749 5751 5753 5755 5754 5749 5746 5749 5757 5761
5668 5668 5668 5668 5668 5668 5669 5670 5670 5670 5670 5672 5672 5672 5674 5674 5675 5676 5676 5677 5678 5680 5681 5682 5683 5683 5683 5684 5685 5686 5686 5687 5688 5689 5691 5692 5692 5694 5695 5696 5698 5699 5701 5701 5702 5704 5706 5706 5706 5708 5710 5711 5712 5713 5714 5715 5717 5719 5721 5724 5726 5728 5730 5731 5733 5736 5735 5734 5736 5736 5738 5739 5741 5744 5747 5747 5747 5747 5747 5748 5750 5752 5751 5745 5744 5749 5755 5757
5665 5665 5664 5664 5665 5665 5665 5666 5667 5667 5667 5668 5669 5669 5671 5671 5672 5673 5673 5673 5676 5678 5679 5679 5680 5680 5681 5682 5683 5684 5684 5685 5686 5686 5688 5689 5690 5691 5693 5694 5696 5697 5698 5699 5701 5703 5704 5704 5705 5706 5708 5710 5711 5712 5713 5714 5716 5718 5719 5721 5724 5726 5728 5729 5730 5732 5732 5731 5732 5734 5736 5737 5739 5742 5744 5743 5743 5744 5745 5746 5747 5748 5746 5743 5744 5749 5752 5754
5662 5661 5661 5661 5661 5662 5662 5663 5663 5664 5664 5665 5665 5666 5667 5668 5669 5670 5670 5671 5675 5677 5676 5676 5677 5678 5678 5679 5681 5682 5683 5684 5684 5683 5685 5687 5688 5690 5691 5692 5694 5695 5696 5697 5699 5701 5702 5702 5703 5704 5706 5709 5710 5710 5711 5712 5714 5717 5718 5719 5722 5725 5726 5726 5727 5729 5729 5729 5730 5732 5734 5735 5737 5740 5741 5740 5740 5742 5744 5744 5743 5743 5742 5742 5746 5748 5748 5750
5659 5658 5658 5657 5657 5658 5659 5659 5660 5660 5661 5661 5662 5663 5664 5665 5666 5666 5667 5670 5674 5675 5673 5674 5676 5675 5676 5677 5678 5680 5681 5682 5682 5681 5683 5685 5686 5688 5689 5690 5691 5693 5694 5695 5697 5699 5700 5700 5700 5703 5705 5707 5708 5708 5710 5712 5713 5714 5716 5717 5719 5723 5724 5724 5725 5727 5726 5726 5728 5731 5733 5733 5734 5737 5737 5737 5737 5739 5741 5741 5740 5739 5739 5742 5745 5745 5744 5747
5656 5655 5655 5654 5654 5654 5655 5656 5657 5657 5657 5658 5658 5659 5660 5661 5661 5662 5666 5670 5672 5673 5672 5672 5673 5673 5674 5675 5676 5677 5679 5680 5679 5679 5681 5683 5684 5686 5687 5688 5690 5691 5693 5694 5696 5698 5698 5698 5699 5702 5704 5705 5706 5707 5709 5710 5711 5712 5714 5716 5718 5720 5722 5722 5724 5724 5724 5725 5727 5730 5732 5731 5732 5734 5734 5733 5734 5736 5736 5735 5736 5737 5738 5741 5742 5741 5742 5744
5653 5653 5652 5652 5651 5651 5652 5653 5654 5654 5654 5654 5655 5655 5656 5656 5657 5660 5664 5667 5669 5670 5670 5670 5671 5671 5671 5673 5674 5675 5676 5677 5677 5677 5680 5681 5682 5683 5685 5686 5688 5690 5692 5693 5695 5696 5696 5697 5698 5700 5702 5703 5704 5706 5708 5709 5709 5710 5713 5714 5716 5717 5718 5719 5721 5722 5723 5724 5726 5728 5729 5729 5729 5730 5731 5731 5732 5734 5733 5732 5734 5735 5736 5738 5738 5738 5740 5740
5650 5650 5650 5649 5649 5649 5649 5650 5651 5651 5651 5651 5651 5652 5651 5652 5655 5658 5661 5664 5666 5667 5667 5668 5669 5669 5669 5670 5672 5672 5673 5675 5674 5675 5677 5678 5679 5681 5682 5684 5685 5688 5690 5691 5692 5693 5694 5695 5697 5698 5700 5701 5703 5705 5706 5708 5709 5710 5712 5713 5714 5715 5715 5717 5719 5720 5721 5723 5724 5725 5726 5727 5726 5725 5727 5730 5731 5731 5731 5731 5734 5733 5733 5735 5735 5735 5736 5736
5647 5647 5647 5647 5646 5646 5646 5647 5647 5647 5647 5648 5648 5648 5648 5650 5653 5656 5658 5661 5663 5663 5664 5666 5666 5666 5667 5668 5670 5670 5671 5673 5673 5673 5675 5675 5677 5678 5681 5683 5684 5686 5688 5689 5690 5691 5692 5693 5695 5697 5698 5699 5702 5704 5704 5705 5707 5709 5710 5711 5711 5713 5714 5716 5717 5718 5719 5720 5721 5722 5723 5723 5723 5722 5725 5727 5727 5728 5730 5731 5732 5731 5732 5733 5734 5734 5734 5734
5645 5645 5645 5644 5643 5643 5643 5643 5644 5644 5644 5644 5644 5644 5645 5648 5650 5653 5655 5657 5660 5661 5662 5664 5665 5664 5665 5666 5668 5669 5670 5671 5671 5671 5672 5673 5675 5676 5678 5680 5682 5684 5686 5687 5688 5690 5691 5693 5694 5695 5696 5697 5699 5701 5702 5704 5706 5707 5709 5709 5710 5712 5713 5714 5716 5716 5717 5718 5719 5720 5720 5720 5721 5722 5722 5724 5725 5726 5727 5728 5729 5730 5730 5730 5732 5735 5735 5734
5642 5642 5642 5641 5641 5641 5640 5640 5641 5640 5641 5640 5640 5641 5643 5645 5647 5649 5652 5653 5656 5658 5658 5659 5661 5662 5663 5664 5665 5667 5668 5668 5668 5668 5669 5671 5672 5674 5676 5678 5679 5682 5684 5685 5687 5688 5689 5691 5692 5693 5694 5696 5698 5699 5700 5702 5704 5706 5707 5708 5710 5712 5712 5713 5714 5714 5715 5717 5717 5718 5718 5719 5720 5720 5719 5722 5724 5725 5724 5723 5725 5729 5729 5728 5730 5735 5735 5734
5640 5639 5639 5638 5638 5637 5637 5637 5637 5637 5637 5636 5637 5639 5640 5641 5643 5645 5648 5649 5650 5652 5652 5653 5656 5659 5661 5662 5663 5665 5665 5665 5665 5665 5667 5668 5669 5671 5674 5675 5677 5679 5681 5683 5684 5685 5686 5687 5689 5691 5693 5694 5696 5697 5698 5700 5702 5704 5705 5706 5707 5709 5710 5711 5711 5712 5713 5714 5715 5717 5718 5717 5717 5717 5717 5718 5719 5721 5721 5721 5723 5728 5728 5728 5729 5731 5733 5734
5637 5636 5636 5635 5635 5634 5634 5633 5633 5633 5633 5633 5633 5635 5636 5637 5639 5640 5643 5644 5646 5647 5648 5649 5652 5654 5656 5659 5661 5662 5662 5661 5662 5662 5663 5664 5665 5667 5670 5672 5674 5676 5678 5680 5681 5682 5682 5685 5687 5688 5691 5693 5693 5694 5696 5697 5699 5701 5702 5703 5704 5705 5706 5708 5709 5711 5712 5713 5713 5716 5717 5714 5714 5715 5715 5715 5716 5718 5718 5719 5721 5724 5725 5727 5728 5729 5731 5732
5634 5634 5633 5633 5632 5631 5630 5630 5629 5629 5629 5629 5629 5630 5631 5632 5634 5636 5638 5640 5642 5642 5643 5644 5647 5649 5651 5655 5658 5659 5659 5658 5659 5659 5659 5659 5661 5664 5667 5669 5670 5672 5674 5676 5678 5679 5679 5682 5685 5685 5688 5691 5691 5692 5694 5696 5697 5699 5700 5701 5703 5703 5704 5706 5707 5708 5710 5710 5711 5714 5714 5711 5711 5713 5713 5713 5715 5716 5716 5717 5719 5720 5722 5725 5726 5727 5729 5730
5632 5631 5630 5630 5629 5628 5627 5626 5626 5625 5625 5625 5625 5625 5626 5627 5629 5631 5634 5636 5637 5637 5637 5639 5642 5644 5646 5649 5652 5654 5655 5654 5655 5656 5655 5656 5658 5660 5662 5664 5665 5667 5670 5672 5675 5676 5676 5679 5683 5683 5684 5687 5689 5691 5693 5694 5696 5697 5698 5700 5701 5702 5703 5704 5704 5705 5707 5708 5709 5709 5709 5709 5710 5711 5711 5712 5713 5714 5714 5715 5715 5716 5718 5720 5721 5723 5725 5726
5630 5629 5628 5627 5626 5625 5624 5623 5622 5621 5621 5621 5621 5621 5621 5623 5624 5626 5628 5629 5630 5631 5632 5635 5638 5639 5640 5643 5645 5648 5649 5651 5652 5653 5653 5655 5657 5657 5658 5661 5662 5664 5667 5668 5670 5672 5672 5675 5679 5680 5681 5684 5685 5687 5689 5691 5694 5696 5697 5699 5699 5700 5701 5701 5702 5703 5704 5705 5707 5707 5706 5707 5708 5709 5708 5708 5709 5710 5711 5711 5712 5713 5713 5714 5715 5717 5719 5719
5628 5626 5625 5624 5623 5622 5620 5619 5618 5617 5617 5617 5617 5617 5617 5618 5619 5620 5622 5623 5625 5627 5628 5630 5634 5636 5638 5641 5642 5644 5646 5647 5648 5648 5649 5652 5652 5652 5655 5658 5660 5662 5664 5665 5665 5666 5669 5672 5674 5676 5678 5680 5682 5683 5684 5687 5689 5691 5693 5695 5695 5696 5698 5698 5699 5701 5701 5702 5704 5705 5703 5704 5706 5706 5706 5706 5706 5706 5707 5708 5709 5711 5712 5712 5712 5713 5713 5713
5626 5624 5623 5621 5620 5618 5616 5614 5613 5612 5612 5612 5612 5612 5613 5613 5614 5615 5617 5619 5621 5623 5624 5626 5629 5631 5634 5637 5639 5642 5644 5644 5645 5645 5646 5647 5648 5650 5652 5655 5658 5659 5660 5662 5662 5663 5666 5668 5670 5673 5674 5676 5678 5680 5681 5682 5682 5685 5688 5690 5692 5694 5694 5694 5696 5697 5697 5698 5700 5701 5700 5700 5702 5703 5704 5704 5704 5704 5705 5706 5708 5710 5711 5711 5711 5711 5711 5712
5624 5622 5621 5619 5617 5614 5612 5610 5608 5607 5607 5607 5607 5608 5609 5610 5611 5612 5613 5614 5616 5617 5618 5621 5624 5626 5627 5630 5633 5637 5639 5641 5643 5644 5643 5644 5646 5648 5649 5652 5655 5655 5656 5660 5661 5662 5664 5666 5667 5670 5671 5671 5674 5675 5677 5678 5680 5682 5683 5685 5688 5690 5691 5691 5692 5692 5693 5695 5696 5697 5696 5697 5698 5699 5701 5702 5702 5702 5703 5704 5706 5707 5708 5709 5710 5711 5712 5712
5623 5621 5618 5616 5614 5611 5609 5607 5605 5603 5602 5601 5601 5603 5605 5607 5608 5608 5609 5611 5612 5613 5615 5618 5621 5622 5623 5625 5628 5631 5634 5638 5640 5641 5642 5642 5642 5644 5647 5649 5652 5653 5654 5658 5659 5660 5663 5664 5665 5667 5668 5669 5671 5672 5674 5676 5677 5678 5680 5682 5683 5684 5686 5687 5687 5688 5690 5691 5692 5693 5693 5693 5694 5696 5698 5699 5699 5700 5700 5701 5703 5704 5706 5707 5708 5709 5710 5710
5621 5619 5616 5614 5611 5609 5607 5605 5603 5600 5598 5597 5596 5598 5601 5603 5604 5604 5606 5607 5608 5610 5612 5614 5617 5619 5621 5624 5626 5628 5631 5634 5637 5639 5641 5640 5639 5642 5645 5646 5649 5651 5652 5654 5656 5658 5660 5661 5662 5665 5665 5666 5668 5669 5671 5673 5674 5675 5678 5680 5680 5680 5681 5683 5683 5685 5687 5687 5687 5689 5690 5690 5691 5693 5695 5697 5698 5698 5697 5698 5699 5701 5703 5704 5705 5706 5707 5708
5619 5617 5615 5611 5609 5607 5606 5604 5602 5600 5597 5595 5595 5595 5597 5599 5600 5601 5602 5604 5605 5607 5608 5610 5613 5616 5619 5621 5623 5625 5627 5631 5634 5636 5637 5637 5638 5641 5644 5645 5646 5648 5650 5651 5653 5655 5657 5658 5660 5662 5664 5664 5664 5666 5668 5670 5671 5673 5674 5676 5677 5677 5678 5678 5680 5681 5682 5682 5683 5684 5685 5686 5688 5691 5693 5695 5696 5695 5695 5695 5696 5698 5700 5700 5702 5703 5704 5705
5618 5616 5613 5610 5607 5606 5604 5603 5601 5599 5597 5595 5595 5595 5595 5596 5597 5598 5599 5601 5603 5604 5605 5608 5611 5613 5615 5617 5618 5620 5622 5625 5629 5630 5632 5634 5636 5639 5641 5643 5644 5645 5647 5649 5651 5653 5654 5655 5657 5659 5661 5661 5661 5663 5665 5666 5668 5670 5670 5672 5674 5674 5675 5676 5677 5678 5678 5679 5680 5680 5681 5683 5686 5688 5690 5691 5692 5693 5693 5694 5694 5695 5696 5697 5698 5700 5701 5703
5617 5614 5612 5609 5606 5605 5603 5602 5601 5599 5597 5596 5595 5594 5594 5595 5595 5596 5597 5598 5599 5600 5602 5605 5607 5609 5611 5612 5613 5615 5618 5621 5624 5626 5629 5633 5634 5636 5638 5641 5642 5643 5644 5646 5648 5649 5651 5653 5654 5656 5657 5658 5658 5659 5661 5662 5663 5665 5667 5668 5670 5671 5672 5673 5674 5674 5675 5676 5677 5677 5678 5680 5683 5684 5686 5687 5688 5689 5691 5691 5692 5692 5693 5693 5695 5697 5698 5700
5616 5614 5611 5608 5606 5604 5602 5601 5600 5599 5597 5596 5595 5594 5594 5594 5594 5594 5595 5596 5597 5598 5600 5602 5603 5605 5607 5608 5611 5614 5617 5620 5622 5624 5627 5631 5633 5634 5636 5638 5640 5641 5642 5643 5644 5646 5648 5649 5651 5652 5653 5655 5656 5656 5657 5658 5659 5660 5662 5664 5665 5667 5668 5669 5670 5671 5671 5672 5673 5673 5674 5676 5678 5680 5682 5683 5685 5686 5687 5688 5689 5690 5690 5690 5691 5693 5695 5697
5615 5613 5611 5608 5606 5604 5602 5600 5599 5598 5597 5595 5594 5593 5593 5593 5592 5592 5593 5594 5595 5596 5597 5599 5601 5602 5604 5606 5609 5612 5615 5617 5619 5622 5625 5628 5630 5631 5633 5636 5638 5638 5639 5641 5642 5644 5645 5646 5647 5649 5650 5651 5653 5653 5653 5654 5655 5657 5659 5660 5661 5662 5663 5664 5666 5667 5667 5668 5669 5670 5671 5672 5674 5676 5677 5678 5680 5682 5683 5685 5687 5688 5687 5687 5689 5692 5694 5696